Location: Nairn
(57.5833°N, 3.8667°W)
Time: 02:07:30
(UTC+00:00)

Transit 2A - Pass Details

Date: 01 December 2020
Orbit: 598 x 960 km, 66.7° (Epoch: 20 January)

Event Time Altitude Azimuth Distance (km) Brightness Sun altitude
Rises 19:25:33 0° 251° (WSW) 3,592 10.4 -29.2°
Reaches altitude 10° 19:28:15 10° 256° (WSW) 2,617 9.6 -29.5°
Maximum altitude 19:34:10 50° 331° (NNW) 1,106 6.9 -30.3°
Enters shadow 19:34:35 49° 346° (NNW) 1,114 6.8 -30.4°
